| time (UTC) | temp F | wind direction | speed knots | gust knots | rain 1hr in | rain 24hr in | rain mn in | humidity % | barometer mb |
| 20260505064511 | 49 | 348 | 0.0 | 2.6 | 0.00 | 0.02 | 0.00 | 83 | 1006.1 |
| 20260505063004 | 50 | 342 | 0.0 | 0.0 | 0.00 | 0.02 | 0.00 | 86 | 1006.0 |
| 20260505061601 | 50 | 342 | 0.0 | 0.0 | 0.00 | 0.02 | 0.00 | 84 | 1005.5 |
| 20260505060103 | 50 | 342 | 0.0 | 0.0 | 0.00 | 0.02 | 0.00 | 83 | 1005.4 |
| 20260505054558 | 50 | 342 | 0.0 | 0.0 | 0.00 | 0.02 | 0.02 | 83 | 1005.2 |
| 20260505053057 | 50 | 341 | 0.0 | 0.0 | 0.00 | 0.02 | 0.02 | 82 | 1005.0 |
| 20260505051556 | 50 | 341 | 0.0 | 0.0 | 0.00 | 0.02 | 0.02 | 82 | 1005.1 |
| 20260505041550 | 51 | 341 | 0.0 | 0.0 | 0.01 | 0.02 | 0.02 | 83 | 1004.5 |
| 20260505040050 | 51 | 341 | 0.0 | 0.0 | 0.01 | 0.02 | 0.02 | 83 | 1004.4 |
| 20260505034551 | 52 | 342 | 0.0 | 0.0 | 0.01 | 0.02 | 0.02 | 81 | 1004.4 |
| 20260505033047 | 52 | 345 | 0.0 | 0.0 | 0.01 | 0.02 | 0.02 | 81 | 1004.1 |
| 20260505031550 | 53 | 345 | 0.0 | 0.0 | 0.00 | 0.01 | 0.01 | 80 | 1004.1 |
| 20260505030044 | 53 | 345 | 0.0 | 0.0 | 0.01 | 0.01 | 0.01 | 79 | 1003.7 |
| 20260505024542 | 54 | 345 | 0.0 | 0.0 | 0.01 | 0.01 | 0.01 | 77 | 1003.2 |
| 20260505023048 | 54 | 345 | 0.0 | 0.0 | 0.01 | 0.01 | 0.01 | 76 | 1003.1 |
| 20260505021541 | 55 | 345 | 0.0 | 0.0 | 0.01 | 0.01 | 0.01 | 73 | 1003.0 |
| 20260505020039 | 56 | 345 | 0.0 | 0.9 | 0.00 | 0.00 | 0.00 | 70 | 1003.4 |
| 20260505014538 | 57 | 345 | 0.0 | 0.0 | 0.00 | 0.00 | 0.00 | 66 | 1003.3 |
| 20260505013035 | 57 | 345 | 0.0 | 2.6 | 0.00 | 0.00 | 0.00 | 58 | 1003.2 |
| 20260505011537 | 57 | 344 | 0.0 | 5.2 | 0.00 | 0.00 | 0.00 | 57 | 1002.9 |
| 20260505010100 | 58 | 340 | 0.0 | 11.3 | 0.00 | 0.00 | 0.00 | 55 | 1002.5 |
| 20260505004534 | 58 | 248 | 0.0 | 1.7 | 0.00 | 0.00 | 0.00 | 54 | 1002.3 |
| 20260505003039 | 58 | 246 | 0.0 | 0.0 | 0.00 | 0.00 | 0.00 | 56 | 1002.2 |
| 20260505001532 | 58 | 246 | 0.0 | 0.0 | 0.00 | 0.00 | 0.00 | 57 | 1002.2 |
| 20260505000042 | 60 | 246 | 0.0 | 8.7 | 0.00 | 0.00 | 0.00 | 54 | 1002.3 |
| 20260504234530 | 64 | 218 | 0.0 | 9.6 | 0.00 | 0.00 | 0.00 | 39 | 1002.0 |
| 20260504233029 | 66 | 350 | 0.0 | 0.0 | 0.00 | 0.00 | 0.00 | 31 | 1001.5 |
| 20260504231528 | 66 | 351 | 0.0 | 0.0 | 0.00 | 0.00 | 0.00 | 30 | 1000.9 |
| 20260504230038 | 67 | 351 | 0.0 | 0.9 | 0.00 | 0.00 | 0.00 | 29 | 1000.5 |
| 20260504224528 | 68 | 351 | 0.0 | 3.5 | 0.00 | 0.00 | 0.00 | 29 | 1000.5 |
| 20260504223128 | 68 | 343 | 3.5 | 10.4 | 0.00 | 0.00 | 0.00 | 30 | 1000.5 |
| 20260504221539 | 68 | 355 | 3.5 | 12.2 | 0.00 | 0.00 | 0.00 | 30 | 1000.5 |
| 20260504220026 | 68 | 307 | 2.6 | 7.8 | 0.00 | 0.00 | 0.00 | 30 | 1000.8 |
| 20260504214526 | 68 | 300 | 0.9 | 7.0 | 0.00 | 0.00 | 0.00 | 30 | 1001.0 |
| 20260504213032 | 70 | 355 | 1.7 | 11.3 | 0.00 | 0.00 | 0.00 | 27 | 1001.2 |
| 20260504211527 | 71 | 5 | 4.3 | 13.9 | 0.00 | 0.00 | 0.00 | 26 | 1000.8 |
| 20260504210023 | 74 | 355 | 11.3 | 18.2 | 0.00 | 0.00 | 0.00 | 24 | 1000.6 |
| 20260504204528 | 72 | 341 | 7.8 | 15.6 | 0.00 | 0.00 | 0.00 | 27 | 1000.4 |
| 20260504203022 | 70 | 360 | 7.8 | 17.4 | 0.00 | 0.00 | 0.00 | 26 | 1000.5 |
| 20260504201524 | 71 | 327 | 8.7 | 19.1 | 0.00 | 0.00 | 0.00 | 25 | 1000.4 |
| 20260504200019 | 71 | 341 | 7.0 | 14.8 | 0.00 | 0.00 | 0.00 | 23 | 1000.2 |
| 20260504194524 | 73 | 342 | 5.2 | 15.6 | 0.00 | 0.00 | 0.00 | 22 | 1000.3 |
| 20260504193018 | 74 | 342 | 9.6 | 20.9 | 0.00 | 0.00 | 0.00 | 20 | 1000.0 |
| 20260504191527 | 75 | 5 | 6.1 | 17.4 | 0.00 | 0.00 | 0.00 | 18 | 999.4 |
| 20260504190016 | 75 | 338 | 2.6 | 13.9 | 0.00 | 0.00 | 0.00 | 19 | 999.5 |
| 20260504184518 | 75 | 348 | 0.0 | 13.0 | 0.00 | 0.00 | 0.00 | 18 | 999.5 |
| 20260504183012 | 74 | 254 | 1.7 | 13.0 | 0.00 | 0.00 | 0.00 | 20 | 999.4 |
| 20260504181515 | 74 | 273 | 4.3 | 14.8 | 0.00 | 0.00 | 0.00 | 20 | 999.5 |
| 20260504180009 | 74 | 256 | 3.5 | 13.9 | 0.00 | 0.00 | 0.00 | 20 | 999.6 |
| 20260504174505 | 73 | 248 | 4.3 | 13.0 | 0.00 | 0.00 | 0.00 | 20 | 999.8 |
| 20260504173002 | 73 | 261 | 1.7 | 14.8 | 0.00 | 0.00 | 0.00 | 21 | 1000.1 |
| 20260504171600 | 71 | 273 | 0.9 | 8.7 | 0.00 | 0.00 | 0.00 | 21 | 1000.3 |
| 20260504081534 | 50 | 13 | 0.0 | 0.0 | 0.00 | 0.00 | 0.00 | 47 | 1002.9 |